Location: Plainartige
(45.6866°N, 1.7993°E)
Time: 11:32:02
(UTC+00:00)

Gurwin Techsat 1B - Pass Details

Date: 08 July 2022
Orbit: 812 x 813 km, 98.8° (Epoch: 13 August)

Event Time Altitude Azimuth Distance (km) Brightness Sun altitude
Rises 02:39:19 0° 13° (NNE) 3,346 13.1 -12.6°
Reaches altitude 10° 02:41:40 10° 13° (NNE) 2,410 12.2 -12.4°
Maximum altitude 02:47:00 85° 287° (WNW) 822 8.6 -11.8°
Enters shadow 02:51:52 13° 199° (SSW) 2,214 10.3 -11.2°
